When you browse on this site, cookies collect data to enhance your experience and personalize the content and advertising you see.
Visit our Privacy Policy to learn more. By continuing to use the site, you agree to this use of cookies and data.
  • In Deutschland
  • Länderverzeichnis
  • Für 7 Tage
  • Wassertemperatur
  • Satellitenkarten
  • Wetterkarte
  • Widgets
  • user-avatar
    Anmelden

    Stündliche Wetter Malanje

    Heute, 26 März, Dienstag

    Zeit Temperatur Niederschläge Wind Luftdruck Luftfeuchtigkeit
    00:00 +21°C° 0 mm 1 m/S 665 mmHg 96%
    01:00 +20°C° 0 mm 1 m/S 665 mmHg 97%
    02:00 +20°C° 0 mm 1 m/S 665 mmHg 98%
    03:00 +20°C° 0 mm 1 m/S 665 mmHg 98%
    04:00 +20°C° 0 mm 1 m/S 665 mmHg 98%
    05:00 +20°C° 0 mm 1 m/S 665 mmHg 98%
    06:00 +21°C° 0 mm 1 m/S 665 mmHg 97%
    07:00 +21°C° 0 mm 1 m/S 666 mmHg 97%
    08:00 +22°C° 1 mm 1 m/S 666 mmHg 93%
    09:00 +24°C° 1 mm 1 m/S 667 mmHg 90%
    10:00 +25°C° 1 mm 1 m/S 667 mmHg 86%
    11:00 +26°C° 1.5 mm 1 m/S 667 mmHg 84%
    12:00 +26°C° 1.5 mm 1 m/S 666 mmHg 82%
    13:00 +27°C° 1.5 mm 1 m/S 666 mmHg 80%
    14:00 +26°C° 1.5 mm 1 m/S 665 mmHg 82%
    15:00 +26°C° 1.5 mm 1 m/S 665 mmHg 83%
    16:00 +26°C° 1.5 mm 1 m/S 665 mmHg 84%
    17:00 +24°C° 0.4 mm 1 m/S 665 mmHg 87%
    18:00 +23°C° 0.4 mm 1 m/S 665 mmHg 90%
    19:00 +22°C° 0.4 mm 1 m/S 665 mmHg 93%
    20:00 +21°C° 0 mm 1 m/S 665 mmHg 94%
    21:00 +21°C° 0 mm 1 m/S 666 mmHg 96%
    22:00 +21°C° 0 mm 1 m/S 666 mmHg 97%
    23:00 +21°C° 0.1 mm 1 m/S 666 mmHg 96%

    Morgen, 27 März, Mittwoch

    Zeit Temperatur Niederschläge Wind Luftdruck Luftfeuchtigkeit
    00:00 +19°C° 0.1 mm 0 m/S 666 mmHg 96%
    01:00 +18°C° 0.1 mm 0 m/S 666 mmHg 95%
    02:00 +18°C° 0 mm 0 m/S 666 mmHg 95%
    03:00 +18°C° 0 mm 0 m/S 665 mmHg 94%
    04:00 +18°C° 0 mm 0 m/S 665 mmHg 94%
    05:00 +20°C° 0 mm 1 m/S 666 mmHg 94%
    06:00 +20°C° 0 mm 1 m/S 666 mmHg 94%
    07:00 +20°C° 0 mm 1 m/S 666 mmHg 94%
    08:00 +23°C° 0 mm 2 m/S 667 mmHg 86%
    09:00 +25°C° 0 mm 2 m/S 668 mmHg 78%
    10:00 +27°C° 0 mm 2 m/S 668 mmHg 70%
    11:00 +28°C° 0.7 mm 2 m/S 668 mmHg 69%
    12:00 +28°C° 0.7 mm 2 m/S 667 mmHg 67%
    13:00 +29°C° 0.7 mm 2 m/S 667 mmHg 66%
    14:00 +29°C° 0.3 mm 1 m/S 666 mmHg 68%
    15:00 +29°C° 0.3 mm 1 m/S 666 mmHg 70%
    16:00 +29°C° 0.3 mm 1 m/S 665 mmHg 72%
    17:00 +27°C° 0.4 mm 1 m/S 665 mmHg 76%
    18:00 +25°C° 0.4 mm 1 m/S 665 mmHg 80%
    19:00 +23°C° 0.4 mm 1 m/S 665 mmHg 85%
    20:00 +23°C° 0.8 mm 1 m/S 666 mmHg 85%
    21:00 +20°C° 0.8 mm 0 m/S 666 mmHg 86%
    22:00 +20°C° 0.8 mm 0 m/S 667 mmHg 87%
    23:00 +21°C° 1 mm 1 m/S 667 mmHg 90%

    übermorgen, 28 März, Donnerstag

    Zeit Temperatur Niederschläge Wind Luftdruck Luftfeuchtigkeit
    00:00 +21°C° 1 mm 1 m/S 666 mmHg 93%
    01:00 +21°C° 1 mm 1 m/S 666 mmHg 96%
    02:00 +21°C° 0.1 mm 1 m/S 666 mmHg 96%
    03:00 +21°C° 0.1 mm 1 m/S 665 mmHg 96%
    04:00 +21°C° 0.1 mm 1 m/S 665 mmHg 96%
    05:00 +21°C° 0 mm 1 m/S 665 mmHg 96%
    06:00 +21°C° 0 mm 1 m/S 666 mmHg 96%
    07:00 +21°C° 0 mm 1 m/S 666 mmHg 97%
    08:00 +21°C° 0 mm 2 m/S 667 mmHg 93%
    09:00 +23°C° 0 mm 2 m/S 668 mmHg 89%
    10:00 +24°C° 0 mm 2 m/S 668 mmHg 85%
    11:00 +26°C° 0 mm 2 m/S 668 mmHg 79%
    12:00 +27°C° 0 mm 2 m/S 667 mmHg 72%
    13:00 +28°C° 0 mm 2 m/S 667 mmHg 66%
    14:00 +28°C° 0.3 mm 2 m/S 666 mmHg 68%
    15:00 +28°C° 0.3 mm 2 m/S 665 mmHg 71%
    16:00 +27°C° 0.3 mm 2 m/S 665 mmHg 73%
    17:00 +26°C° 0.2 mm 1 m/S 665 mmHg 78%
    18:00 +24°C° 0.2 mm 1 m/S 665 mmHg 84%
    19:00 +22°C° 0.2 mm 1 m/S 665 mmHg 89%
    20:00 +22°C° 0 mm 1 m/S 666 mmHg 89%
    21:00 +22°C° 0 mm 1 m/S 666 mmHg 90%
    22:00 +21°C° 0 mm 1 m/S 666 mmHg 90%
    23:00 +21°C° 0 mm 1 m/S 666 mmHg 91%

    29 März, Freitag

    Zeit Temperatur Niederschläge Wind Luftdruck Luftfeuchtigkeit
    00:00 +21°C° 0 mm 1 m/S 665 mmHg 92%
    01:00 +20°C° 0 mm 1 m/S 665 mmHg 93%
    02:00 +20°C° 0 mm 1 m/S 665 mmHg 94%
    03:00 +20°C° 0 mm 1 m/S 664 mmHg 94%
    04:00 +20°C° 0 mm 1 m/S 664 mmHg 95%
    05:00 +20°C° 0 mm 1 m/S 665 mmHg 94%
    06:00 +21°C° 0 mm 1 m/S 665 mmHg 93%
    07:00 +21°C° 0 mm 1 m/S 666 mmHg 92%
    08:00 +23°C° 0 mm 2 m/S 667 mmHg 84%
    09:00 +25°C° 0 mm 2 m/S 667 mmHg 75%
    10:00 +28°C° 0 mm 2 m/S 667 mmHg 66%
    11:00 +29°C° 0.2 mm 2 m/S 667 mmHg 62%
    12:00 +29°C° 0.2 mm 2 m/S 666 mmHg 59%
    13:00 +30°C° 0.2 mm 2 m/S 665 mmHg 55%
    14:00 +30°C° 0 mm 1 m/S 665 mmHg 57%
    15:00 +30°C° 0 mm 1 m/S 664 mmHg 58%
    16:00 +30°C° 0 mm 1 m/S 664 mmHg 60%
    17:00 +28°C° 0 mm 1 m/S 664 mmHg 64%
    18:00 +24°C° 0 mm 0 m/S 664 mmHg 69%
    19:00 +22°C° 0 mm 0 m/S 664 mmHg 73%
    20:00 +23°C° 1.3 mm 1 m/S 665 mmHg 80%
    21:00 +22°C° 1.3 mm 1 m/S 665 mmHg 86%
    22:00 +20°C° 1.3 mm 2 m/S 666 mmHg 93%
    23:00 +20°C° 1.9 mm 2 m/S 666 mmHg 94%

    30 März, Samstag

    Zeit Temperatur Niederschläge Wind Luftdruck Luftfeuchtigkeit
    00:00 +20°C° 1.9 mm 2 m/S 666 mmHg 95%
    01:00 +21°C° 1.9 mm 1 m/S 665 mmHg 96%
    02:00 +21°C° 0.2 mm 1 m/S 665 mmHg 97%
    03:00 +21°C° 0.2 mm 1 m/S 665 mmHg 97%
    04:00 +21°C° 0.2 mm 1 m/S 665 mmHg 97%
    05:00 +21°C° 0 mm 1 m/S 665 mmHg 97%
    06:00 +21°C° 0 mm 1 m/S 666 mmHg 96%
    07:00 +19°C° 0 mm 0 m/S 666 mmHg 95%
    08:00 +21°C° 0.6 mm 0 m/S 667 mmHg 90%
    09:00 +23°C° 0.6 mm 0 m/S 667 mmHg 85%
    10:00 +26°C° 0.6 mm 1 m/S 668 mmHg 81%
    11:00 +26°C° 0.8 mm 1 m/S 667 mmHg 78%
    12:00 +27°C° 0.8 mm 1 m/S 666 mmHg 76%
    13:00 +27°C° 0.8 mm 2 m/S 666 mmHg 73%
    14:00 +26°C° 0.8 mm 1 m/S 665 mmHg 77%
    15:00 +26°C° 0.8 mm 1 m/S 665 mmHg 82%
    16:00 +25°C° 0.8 mm 1 m/S 664 mmHg 86%
    17:00 +24°C° 0.3 mm 1 m/S 665 mmHg 88%
    18:00 +23°C° 0.3 mm 1 m/S 665 mmHg 90%
    19:00 +22°C° 0.3 mm 1 m/S 665 mmHg 92%
    20:00 +21°C° 0.1 mm 1 m/S 666 mmHg 93%
    21:00 +21°C° 0.1 mm 1 m/S 666 mmHg 94%
    22:00 +21°C° 0.1 mm 1 m/S 666 mmHg 94%
    23:00 +21°C° 0 mm 1 m/S 666 mmHg 94%

    31 März, Sonntag

    Zeit Temperatur Niederschläge Wind Luftdruck Luftfeuchtigkeit
    00:00 +21°C° 0 mm 1 m/S 665 mmHg 94%
    01:00 +20°C° 0 mm 1 m/S 665 mmHg 94%
    02:00 +20°C° 0 mm 1 m/S 665 mmHg 95%
    03:00 +20°C° 0 mm 1 m/S 664 mmHg 95%
    04:00 +19°C° 0 mm 1 m/S 664 mmHg 96%
    05:00 +20°C° 0 mm 1 m/S 665 mmHg 95%
    06:00 +20°C° 0 mm 1 m/S 665 mmHg 94%
    07:00 +20°C° 0 mm 1 m/S 665 mmHg 93%
    08:00 +23°C° 0 mm 2 m/S 666 mmHg 84%
    09:00 +25°C° 0 mm 2 m/S 667 mmHg 74%
    10:00 +28°C° 0 mm 2 m/S 667 mmHg 65%
    11:00 +28°C° 0.1 mm 2 m/S 667 mmHg 62%
    12:00 +29°C° 0.1 mm 2 m/S 666 mmHg 59%
    13:00 +30°C° 0.1 mm 2 m/S 666 mmHg 55%
    14:00 +30°C° 0 mm 1 m/S 665 mmHg 57%
    15:00 +30°C° 0 mm 1 m/S 665 mmHg 58%
    16:00 +30°C° 0 mm 1 m/S 665 mmHg 60%
    17:00 +28°C° 0.1 mm 1 m/S 665 mmHg 67%
    18:00 +26°C° 0.1 mm 1 m/S 665 mmHg 74%
    19:00 +23°C° 0.1 mm 1 m/S 665 mmHg 82%
    20:00 +23°C° 0.3 mm 1 m/S 665 mmHg 85%
    21:00 +22°C° 0.3 mm 1 m/S 665 mmHg 88%
    22:00 +21°C° 0.3 mm 1 m/S 665 mmHg 91%
    23:00 +21°C° 0 mm 1 m/S 665 mmHg 92%
    Mehr zeigen